Flag for Vietnam Weather past 2 weeks in Hanoi, Vietnam

Now
82 °F

Clear.


Feels Like: 92 °F
Forecast: 79 / 95 °F
Wind: 6 mph from Northeast

Location: Ha Noi Airport

Current Time: Aug 1, 2014 at 3:18:32 AM

Latest Report: Aug 1, 2014 at 3:00 AM


Visibility: 4 mi

Pressure: 29.59 "Hg

Humidity: 89%

Dew point: 79 °F

Location of HanoiLocation

Historic Weather in Hanoi — Graph

°F

Hanoi temperature yesterday

Maximum temperature yesterday: 93 °F (at 12:30 PM)
Minimum temperature yesterday: 79 °F (at 5:00 AM)
Average temperature yesterday: 87 °F

Past Weeks' High & Low Weather Summary

 TemperatureHumidityPressure
High97 °F (Jul 24, 2:00 PM)100% (Jul 17, 10:00 AM)29.80 "Hg (Jul 17, 10:00 AM)
Low73 °F (Jul 27, 5:00 AM)50% (Jul 23, 4:30 PM)29.42 "Hg (Jul 19, 2:30 AM)
Average84 °F82%29.63 "Hg
* Reported Jul 17 2:00 AM — Aug 1 2:00 AM, Hanoi, Weather by CustomWeather, © 2014

Note: Actual official high and low records may vary slightly from our data, if they occured in-between our weather recording intervals... More about our weather records

Advertising

Hanoi weather history for previous 24 hours

 ConditionsComfort  
Time TempWeatherWind HumidityBarometerVisibility
2:00 AM
Aug 1
82 °FClear.5 mph89%29.59 "Hg5 mi
1:30 AM82 °FPassing clouds.5 mph89%29.59 "HgN/A
1:00 AM82 °FPassing clouds.5 mph89%29.62 "HgN/A
12:30 AM84 °FClear.6 mph84%29.62 "Hg10 mi
12:00 AM84 °FClear.7 mph84%29.62 "Hg10 mi
11:30 PM
Jul 31
86 °FClear.7 mph79%29.62 "Hg10 mi
11:00 PM86 °FClear.8 mph84%29.62 "Hg10 mi
10:30 PM86 °FClear.7 mph79%29.62 "Hg5 mi
10:00 PM88 °FClear.7 mph75%29.62 "Hg4 mi
9:30 PM88 °FClear.3 mph70%29.62 "Hg10 mi
9:00 PM88 °FPassing clouds.5 mph70%29.59 "HgN/A
8:30 PM88 °FPassing clouds.6 mph70%29.56 "HgN/A
8:00 PM90 °FClear.7 mph67%29.56 "Hg10 mi
7:30 PM90 °FClear.6 mph67%29.56 "Hg10 mi
7:00 PM90 °FClear.6 mph71%29.53 "Hg10 mi
6:30 PM90 °FSunny.6 mph71%29.53 "Hg10 mi
6:00 PM91 °FPassing clouds.7 mph67%29.53 "HgN/A
5:30 PM91 °FPassing clouds.7 mph67%29.53 "HgN/A
5:00 PM91 °FPassing clouds.9 mph67%29.56 "HgN/A
4:30 PM93 °FPassing clouds.7 mph63%29.56 "HgN/A
4:00 PM91 °FBroken clouds.8 mph67%29.56 "HgN/A
3:30 PM93 °FBroken clouds.7 mph67%29.59 "Hg6 mi
3:00 PM91 °FBroken clouds.6 mph67%29.59 "Hg6 mi
2:30 PM93 °FBroken clouds.5 mph63%29.59 "Hg5 mi
2:00 PM91 °FBroken clouds.6 mph71%29.62 "Hg5 mi
1:30 PM91 °FBroken clouds.5 mph67%29.62 "Hg6 mi
1:00 PM93 °FBroken clouds.3 mph63%29.65 "Hg6 mi
12:30 PM93 °FBroken clouds.3 mph63%29.65 "Hg6 mi
12:00 PM91 °FBroken clouds.3 mph67%29.65 "Hg6 mi
11:30 AM91 °FBroken clouds.3 mph67%29.65 "Hg6 mi
11:00 AM90 °FBroken clouds.5 mph71%29.68 "HgN/A
10:30 AM88 °FBroken clouds.5 mph75%29.68 "HgN/A
9:30 AM88 °FBroken clouds.5 mph75%29.71 "Hg5 mi
9:00 AM86 °FBroken clouds.6 mph79%29.71 "Hg3 mi
8:30 AM84 °FFog.5 mph84%29.71 "Hg2 mi
8:00 AM84 °FBroken clouds.3 mph84%29.68 "Hg3 mi
7:30 AM82 °FBroken clouds.3 mph89%29.68 "Hg3 mi
6:30 AM81 °FPartly sunny.5 mph94%29.68 "Hg3 mi
6:00 AM79 °FFog.5 mph94%29.68 "Hg2 mi
5:30 AM79 °FFog.3 mph94%29.68 "Hg3 mi
5:00 AM79 °FPassing clouds.No wind94%29.68 "Hg3 mi
4:30 AM81 °FPassing clouds.No wind94%29.68 "Hg4 mi
4:00 AM81 °FPassing clouds.1 mph94%29.68 "Hg3 mi
3:30 AM81 °FPassing clouds.No wind94%29.68 "Hg3 mi
3:00 AM81 °FFog.3 mph94%29.68 "Hg3 mi
Weather by CustomWeather, © 2014

See weather overviewHow to use our weather pages